WXM80 ListenWXM80 Stop

You find our weather info also at:

UK Metoffice

WeatherCloud

Weather Underground

Northeastern Weather Network

AWEKAS

Citizen Weather Observer Program (CWOP)

HAMweather, WeatherForYou, PWS Weather


Weather Underground History page Text

Daily Summary for September 9, 2017 Units:  English    Metric   Both
« Previous Day
Next Day »
Daily Weekly Monthly Yearly Custom
  High: Low: Average:
Temperature: 74.1 °F 57.9 °F 63.8 °F
Dew Point: 56.5 °F 51.6 °F 53.6 °F
Humidity: 85 % 51 % 71 %
Wind Speed: 10.3 mph 0.0 mph 3.1 mph
Wind Gust: 16.1 mph - -
Wind:- - SSW
Pressure: 30.23 in 30.11 in -
Precipitation: 0.00 in    
Historical Graphs
 
 
Tabular Data for September 9, 2017
Time Temperature Dew Point Pressure Wind Wind Speed Wind Gust Humidity Rainfall Rate (Hourly)
00:02 61.3 °F 53.7 °F 30.11 in SSE 0.2 mph 2.3 mph 76 % 0.00 in
00:07 61.3 °F 53.7 °F 30.12 in NW 2.3 mph 5.8 mph 76 % 0.00 in
00:12 61.2 °F 53.6 °F 30.12 in NNW 0.1 mph 1.2 mph 76 % 0.00 in
00:17 61.1 °F 53.5 °F 30.12 in NW 1.0 mph 3.5 mph 76 % 0.00 in
00:22 61.1 °F 53.5 °F 30.12 in North 1.7 mph 3.5 mph 76 % 0.00 in
00:27 61.0 °F 53.4 °F 30.12 in NW 1.3 mph 2.3 mph 76 % 0.00 in
00:32 60.9 °F 53.3 °F 30.12 in Calm   2.0 mph 76 % 0.00 in
00:37 60.9 °F 53.6 °F 30.13 in NW 1.0 mph 2.3 mph 77 % 0.00 in
00:42 60.8 °F 53.9 °F 30.13 in NNW 0.6 mph 1.0 mph 78 % 0.00 in
00:47 60.8 °F 53.9 °F 30.13 in NNE 0.6 mph 4.0 mph 78 % 0.00 in
00:52 60.7 °F 53.8 °F 30.13 in NNW 1.0 mph 1.2 mph 78 % 0.00 in
00:58 60.7 °F 54.1 °F 30.13 in NNE 0.1 mph 2.3 mph 79 % 0.00 in
01:03 60.6 °F 54.0 °F 30.13 in WNW 1.7 mph 3.5 mph 79 % 0.00 in
01:08 60.5 °F 53.6 °F 30.13 in WNW 1.1 mph 3.5 mph 78 % 0.00 in
01:13 60.5 °F 53.6 °F 30.13 in WNW 0.4 mph 3.5 mph 78 % 0.00 in
01:18 60.4 °F 53.9 °F 30.13 in WNW 0.9 mph 3.5 mph 79 % 0.00 in
01:23 60.3 °F 53.8 °F 30.12 in WNW 0.1 mph 2.3 mph 79 % 0.00 in
01:28 60.2 °F 53.7 °F 30.12 in WNW 0.1 mph 1.2 mph 79 % 0.00 in
01:33 60.1 °F 53.6 °F 30.13 in WNW 0.9 mph 3.5 mph 79 % 0.00 in
01:38 60.0 °F 53.8 °F 30.13 in NNW 0.6 mph 3.5 mph 80 % 0.00 in
01:43 59.9 °F 54.1 °F 30.12 in Calm     81 % 0.00 in
01:48 59.8 °F 54.0 °F 30.12 in WNW 0.5 mph 2.3 mph 81 % 0.00 in
01:53 59.6 °F 53.8 °F 30.13 in Calm   1.2 mph 81 % 0.00 in
01:58 59.5 °F 54.0 °F 30.13 in Calm     82 % 0.00 in
01:59 59.5 °F 54.0 °F 30.13 in Calm     82 % 0.00 in
02:04 59.4 °F 53.9 °F 30.13 in WNW 1.5 mph 2.3 mph 82 % 0.00 in
02:09 59.3 °F 53.8 °F 30.13 in WNW 1.1 mph 3.5 mph 82 % 0.00 in
02:14 59.2 °F 53.7 °F 30.13 in WNW 0.1 mph 1.0 mph 82 % 0.00 in
02:19 59.1 °F 53.9 °F 30.13 in WNW 1.3 mph 3.5 mph 83 % 0.00 in
02:24 59.0 °F 53.8 °F 30.13 in WNW 0.7 mph 2.3 mph 83 % 0.00 in
02:29 58.9 °F 54.1 °F 30.13 in WNW 0.6 mph 3.5 mph 84 % 0.00 in
02:34 58.7 °F 53.9 °F 30.13 in WNW 0.5 mph 2.3 mph 84 % 0.00 in
02:39 58.7 °F 53.9 °F 30.13 in WNW 1.3 mph 3.0 mph 84 % 0.00 in
02:44 58.6 °F 53.8 °F 30.13 in NNW 0.3 mph 3.5 mph 84 % 0.00 in
02:49 58.5 °F 54.0 °F 30.13 in Calm   2.3 mph 85 % 0.00 in
02:54 58.4 °F 53.6 °F 30.14 in NNW 0.7 mph 2.0 mph 84 % 0.00 in
02:59 58.3 °F 53.8 °F 30.13 in NW 0.1 mph 3.5 mph 85 % 0.00 in
03:04 58.3 °F 53.8 °F 30.14 in NW 0.3 mph 1.2 mph 85 % 0.00 in
03:09 58.2 °F 53.7 °F 30.13 in NW 0.5 mph 2.0 mph 85 % 0.00 in
03:14 58.2 °F 53.7 °F 30.13 in NNW 1.0 mph 3.5 mph 85 % 0.00 in
03:19 58.2 °F 53.7 °F 30.13 in Calm   1.2 mph 85 % 0.00 in
03:24 58.1 °F 53.3 °F 30.13 in Calm   1.2 mph 84 % 0.00 in
03:29 58.1 °F 53.6 °F 30.13 in Calm   2.3 mph 85 % 0.00 in
03:34 58.1 °F 53.6 °F 30.13 in NW 0.1 mph 2.3 mph 85 % 0.00 in
03:39 58.1 °F 53.6 °F 30.14 in NNE 0.4 mph 3.5 mph 85 % 0.00 in
03:44 58.1 °F 53.6 °F 30.14 in NW 0.3 mph 3.5 mph 85 % 0.00 in
03:49 58.1 °F 53.6 °F 30.13 in North 0.7 mph 3.0 mph 85 % 0.00 in
03:54 58.0 °F 53.5 °F 30.14 in North 1.0 mph 5.0 mph 85 % 0.00 in
03:59 58.0 °F 53.5 °F 30.14 in NNE 0.8 mph 3.0 mph 85 % 0.00 in
04:04 58.0 °F 53.5 °F 30.14 in NNW 1.0 mph 4.6 mph 85 % 0.00 in
04:05 58.0 °F 53.5 °F 30.14 in NNW 0.3 mph 3.5 mph 85 % 0.00 in
04:10 58.0 °F 53.5 °F 30.14 in North 1.4 mph 2.3 mph 85 % 0.00 in
04:15 58.0 °F 53.5 °F 30.14 in NNW 1.1 mph 3.5 mph 85 % 0.00 in
04:20 58.0 °F 53.5 °F 30.14 in NE 1.5 mph 5.8 mph 85 % 0.00 in
04:26 58.0 °F 53.5 °F 30.15 in NNE 2.3 mph 8.1 mph 85 % 0.00 in
04:29 58.1 °F 53.3 °F 30.14 in North 3.8 mph 5.8 mph 84 % 0.00 in
04:34 58.1 °F 53.0 °F 30.14 in NNW 0.1 mph 6.9 mph 83 % 0.00 in
04:39 58.1 °F 53.3 °F 30.14 in North 1.7 mph 3.5 mph 84 % 0.00 in
04:44 58.1 °F 53.0 °F 30.14 in North 4.1 mph 5.0 mph 83 % 0.00 in
04:49 58.2 °F 53.1 °F 30.15 in NNE 3.2 mph 5.0 mph 83 % 0.00 in
04:54 58.2 °F 52.7 °F 30.15 in North 0.1 mph 2.3 mph 82 % 0.00 in
04:59 58.2 °F 52.7 °F 30.15 in NNW 2.8 mph 6.9 mph 82 % 0.00 in
05:04 58.3 °F 52.8 °F 30.15 in North 3.2 mph 5.8 mph 82 % 0.00 in
05:09 58.3 °F 52.5 °F 30.15 in NNE 1.2 mph 8.1 mph 81 % 0.00 in
05:14 58.3 °F 52.5 °F 30.15 in North 5.3 mph 9.2 mph 81 % 0.00 in
05:20 58.3 °F 52.5 °F 30.15 in WNW 3.5 mph 6.9 mph 81 % 0.00 in
05:25 58.3 °F 52.5 °F 30.15 in ENE 3.3 mph 8.1 mph 81 % 0.00 in
05:30 58.3 °F 52.5 °F 30.15 in NNE 3.3 mph 8.0 mph 81 % 0.00 in
05:35 58.4 °F 52.6 °F 30.15 in NNW 2.9 mph 8.1 mph 81 % 0.00 in
05:40 58.4 °F 52.6 °F 30.15 in NNW 4.1 mph 8.1 mph 81 % 0.00 in
05:45 58.4 °F 52.6 °F 30.16 in NW 2.4 mph 6.0 mph 81 % 0.00 in
05:50 58.4 °F 52.6 °F 30.16 in North 3.6 mph 5.8 mph 81 % 0.00 in
05:55 58.4 °F 52.3 °F 30.16 in West 5.4 mph 7.0 mph 80 % 0.00 in
06:00 58.3 °F 52.2 °F 30.16 in North 5.2 mph 10.4 mph 80 % 0.00 in
06:05 58.3 °F 52.2 °F 30.16 in NW 4.3 mph 10.4 mph 80 % 0.00 in
06:10 58.3 °F 52.2 °F 30.16 in North 5.2 mph 11.5 mph 80 % 0.00 in
06:15 58.2 °F 52.1 °F 30.16 in NW 3.8 mph 10.4 mph 80 % 0.00 in
06:21 58.2 °F 52.1 °F 30.17 in North 6.0 mph 10.0 mph 80 % 0.00 in
06:26 58.2 °F 52.0 °F 30.17 in North 5.0 mph 13.0 mph 80 % 0.00 in
06:31 58.1 °F 52.3 °F 30.17 in North 6.0 mph 10.0 mph 81 % 0.00 in
06:36 58.1 °F 52.0 °F 30.17 in North 5.0 mph 9.0 mph 80 % 0.00 in
06:41 58.1 °F 52.3 °F 30.17 in North 5.0 mph 9.0 mph 81 % 0.00 in
06:46 58.0 °F 52.2 °F 30.18 in NNW 5.0 mph 9.0 mph 81 % 0.00 in
06:51 58.0 °F 52.2 °F 30.18 in North 2.0 mph 8.0 mph 81 % 0.00 in
06:56 57.9 °F 52.1 °F 30.18 in NNE 5.0 mph 8.0 mph 81 % 0.00 in
07:01 57.9 °F 51.8 °F 30.18 in North 4.2 mph 9.2 mph 80 % 0.00 in
07:06 57.9 °F 51.8 °F 30.18 in NNW 5.9 mph 10.4 mph 80 % 0.00 in
07:11 57.9 °F 52.1 °F 30.18 in NNW 3.0 mph 4.6 mph 81 % 0.00 in
07:16 57.9 °F 52.1 °F 30.18 in NNE 6.3 mph 10.4 mph 81 % 0.00 in
07:21 57.9 °F 52.1 °F 30.19 in NNW 4.6 mph 8.1 mph 81 % 0.00 in
07:26 58.0 °F 52.5 °F 30.19 in North 2.9 mph 6.9 mph 82 % 0.00 in
07:31 58.0 °F 52.5 °F 30.18 in North 5.4 mph 9.2 mph 82 % 0.00 in
07:36 58.0 °F 52.2 °F 30.19 in North 1.1 mph 5.8 mph 81 % 0.00 in
07:41 58.0 °F 52.5 °F 30.19 in North 4.5 mph 9.2 mph 82 % 0.00 in
07:46 58.0 °F 52.2 °F 30.19 in North 3.4 mph 3.5 mph 81 % 0.00 in
07:51 58.1 °F 52.6 °F 30.19 in North 4.1 mph 9.0 mph 82 % 0.00 in
07:56 58.3 °F 52.5 °F 30.19 in NW 4.2 mph 9.2 mph 81 % 0.00 in
08:01 58.4 °F 52.6 °F 30.19 in North 7.3 mph 8.1 mph 81 % 0.00 in
08:07 58.5 °F 52.7 °F 30.19 in NNE 3.8 mph 9.2 mph 81 % 0.00 in
08:12 58.6 °F 52.8 °F 30.19 in North 4.9 mph 5.8 mph 81 % 0.00 in
08:17 58.6 °F 52.8 °F 30.19 in NNE 5.7 mph 11.5 mph 81 % 0.00 in
08:22 58.7 °F 52.5 °F 30.19 in NNE 5.8 mph 10.4 mph 80 % 0.00 in
08:27 58.9 °F 52.7 °F 30.19 in NE 5.6 mph 10.4 mph 80 % 0.00 in
08:32 58.9 °F 52.7 °F 30.19 in NE 2.8 mph 5.0 mph 80 % 0.00 in
08:37 59.0 °F 52.8 °F 30.20 in North 6.3 mph 9.2 mph 80 % 0.00 in
08:42 59.1 °F 52.9 °F 30.20 in NNE 2.5 mph 5.8 mph 80 % 0.00 in
08:47 59.3 °F 53.1 °F 30.20 in NE 1.9 mph 5.8 mph 80 % 0.00 in
08:52 59.4 °F 53.2 °F 30.20 in ENE 4.0 mph 4.0 mph 80 % 0.00 in
08:57 59.5 °F 53.0 °F 30.20 in North 3.4 mph 6.9 mph 79 % 0.00 in
09:03 59.7 °F 53.2 °F 30.20 in NNW 5.6 mph 8.1 mph 79 % 0.00 in
09:08 59.8 °F 52.9 °F 30.20 in NNW 4.3 mph 11.5 mph 78 % 0.00 in
09:13 59.8 °F 52.6 °F 30.20 in NNE 4.2 mph 9.2 mph 77 % 0.00 in
09:18 59.9 °F 53.0 °F 30.21 in WNW 3.0 mph 7.0 mph 78 % 0.00 in
09:23 60.0 °F 53.1 °F 30.21 in NNW 4.8 mph 5.8 mph 78 % 0.00 in
09:28 60.1 °F 52.9 °F 30.21 in NNW 2.4 mph 4.6 mph 77 % 0.00 in
09:33 60.2 °F 53.0 °F 30.21 in NNE 2.1 mph 3.5 mph 77 % 0.00 in
09:38 60.4 °F 52.8 °F 30.22 in NNE 2.9 mph 5.8 mph 76 % 0.00 in
09:43 60.6 °F 53.3 °F 30.22 in NNE 1.4 mph 4.6 mph 77 % 0.00 in
09:48 61.0 °F 53.4 °F 30.22 in NW 2.2 mph 4.0 mph 76 % 0.00 in
09:53 61.6 °F 54.3 °F 30.22 in NNE 0.2 mph 1.2 mph 77 % 0.00 in
09:58 62.0 °F 53.2 °F 30.22 in NNW 1.8 mph 3.5 mph 73 % 0.00 in
10:03 62.3 °F 53.2 °F 30.22 in NW 3.7 mph 5.8 mph 72 % 0.00 in
10:08 62.6 °F 53.1 °F 30.22 in North 4.3 mph 6.9 mph 71 % 0.00 in
10:13 62.8 °F 53.3 °F 30.22 in NNW 1.1 mph 4.6 mph 71 % 0.00 in
10:18 62.9 °F 53.7 °F 30.22 in NNE 4.3 mph 8.1 mph 72 % 0.00 in
10:23 63.0 °F 53.1 °F 30.21 in NNE 5.1 mph 8.1 mph 70 % 0.00 in
10:28 63.0 °F 53.1 °F 30.22 in NNE 5.5 mph 9.0 mph 70 % 0.00 in
10:33 63.1 °F 53.5 °F 30.22 in ENE 2.2 mph 5.8 mph 71 % 0.00 in
10:38 63.2 °F 53.3 °F 30.22 in NNE 5.1 mph 6.0 mph 70 % 0.00 in
10:43 63.3 °F 53.7 °F 30.21 in NNW 2.7 mph 5.0 mph 71 % 0.00 in
10:48 63.5 °F 53.1 °F 30.22 in North 2.1 mph 5.0 mph 69 % 0.00 in
10:54 63.9 °F 53.9 °F 30.21 in NNE 3.6 mph 4.0 mph 70 % 0.00 in
10:59 64.2 °F 54.2 °F 30.21 in North 2.4 mph 2.4 mph 70 % 0.00 in
11:04 64.7 °F 53.9 °F 30.21 in NNW 3.9 mph 8.0 mph 68 % 0.00 in
11:09 65.3 °F 54.1 °F 30.21 in North 4.6 mph 8.1 mph 67 % 0.00 in
11:14 66.0 °F 53.9 °F 30.21 in NNE 3.3 mph 9.2 mph 65 % 0.00 in
11:19 66.9 °F 54.3 °F 30.21 in NNE 5.4 mph 7.0 mph 64 % 0.00 in
11:24 67.8 °F 55.2 °F 30.21 in NNW 2.4 mph 5.8 mph 64 % 0.00 in
11:29 68.8 °F 54.3 °F 30.21 in NNE 4.3 mph 9.0 mph 60 % 0.00 in
11:34 69.4 °F 54.9 °F 30.21 in NE 3.5 mph 8.1 mph 60 % 0.00 in
11:39 70.1 °F 54.2 °F 30.20 in NNE 4.0 mph 6.0 mph 57 % 0.00 in
11:44 70.8 °F 55.3 °F 30.21 in North 3.1 mph 6.9 mph 58 % 0.00 in
11:49 71.3 °F 55.8 °F 30.21 in North 3.9 mph 8.1 mph 58 % 0.00 in
11:54 71.8 °F 54.8 °F 30.21 in NW 2.4 mph 4.6 mph 55 % 0.00 in
11:59 71.8 °F 54.8 °F 30.21 in NNW 2.1 mph 5.8 mph 55 % 0.00 in
12:04 72.0 °F 55.4 °F 30.21 in NNW 2.0 mph 4.6 mph 56 % 0.00 in
12:10 72.5 °F 56.4 °F 30.21 in NNE 3.3 mph 5.8 mph 57 % 0.00 in
12:15 72.7 °F 54.1 °F 30.21 in NNW 2.8 mph 6.0 mph 52 % 0.00 in
12:20 73.0 °F 55.9 °F 30.21 in North 0.8 mph 5.0 mph 55 % 0.00 in
12:23 73.1 °F 55.5 °F 30.21 in NNE 7.0 mph 9.2 mph 54 % 0.00 in
12:28 73.0 °F 54.3 °F 30.21 in NNE 5.5 mph 8.1 mph 52 % 0.00 in
12:33 72.9 °F 56.3 °F 30.21 in NNE 3.3 mph 6.9 mph 56 % 0.00 in
12:38 73.1 °F 56.0 °F 30.21 in NW 3.8 mph 6.9 mph 55 % 0.00 in
12:43 73.3 °F 55.1 °F 30.20 in NNW 3.3 mph 6.9 mph 53 % 0.00 in
12:48 73.4 °F 55.2 °F 30.21 in North 1.3 mph 3.5 mph 53 % 0.00 in
12:53 73.4 °F 55.2 °F 30.20 in NNE 5.1 mph 7.0 mph 53 % 0.00 in
12:58 73.7 °F 56.0 °F 30.21 in North 4.5 mph 8.1 mph 54 % 0.00 in
13:03 73.9 °F 55.2 °F 30.21 in North 4.2 mph 6.9 mph 52 % 0.00 in
13:08 74.0 °F 55.3 °F 30.21 in North 2.1 mph 3.5 mph 52 % 0.00 in
13:13 74.1 °F 55.3 °F 30.21 in NW 3.5 mph 8.1 mph 52 % 0.00 in
13:18 73.9 °F 55.2 °F 30.21 in NNW 2.4 mph 5.8 mph 52 % 0.00 in
13:23 73.6 °F 54.9 °F 30.21 in North 3.1 mph 4.6 mph 52 % 0.00 in
13:28 73.4 °F 55.7 °F 30.21 in NW 0.5 mph 2.3 mph 54 % 0.00 in
13:33 73.1 °F 56.0 °F 30.21 in North 3.0 mph 4.6 mph 55 % 0.00 in
13:38 73.5 °F 56.3 °F 30.20 in West 1.5 mph 4.6 mph 55 % 0.00 in
13:43 73.3 °F 55.1 °F 30.21 in North 2.4 mph 3.5 mph 53 % 0.00 in
13:48 73.1 °F 56.5 °F 30.20 in NW 2.7 mph 4.6 mph 56 % 0.00 in
13:53 73.1 °F 55.5 °F 30.20 in WNW 2.0 mph 4.0 mph 54 % 0.00 in
13:58 73.3 °F 56.2 °F 30.20 in NNW 4.4 mph 6.9 mph 55 % 0.00 in
14:03 73.4 °F 54.7 °F 30.20 in WNW 4.5 mph 9.0 mph 52 % 0.00 in
14:08 73.4 °F 56.2 °F 30.20 in NNE 2.0 mph 4.6 mph 55 % 0.00 in
14:13 73.6 °F 56.4 °F 30.20 in WNW 1.3 mph 7.0 mph 55 % 0.00 in
14:18 73.7 °F 55.5 °F 30.20 in WNW 4.6 mph 5.8 mph 53 % 0.00 in
14:23 73.8 °F 56.1 °F 30.19 in NW 4.9 mph 6.9 mph 54 % 0.00 in
14:28 73.8 °F 54.5 °F 30.19 in WNW 4.2 mph 11.5 mph 51 % 0.00 in
14:33 73.9 °F 56.2 °F 30.19 in WNW 2.1 mph 5.8 mph 54 % 0.00 in
14:38 73.9 °F 54.6 °F 30.19 in NNW 3.8 mph 9.2 mph 51 % 0.00 in
14:43 74.0 °F 56.3 °F 30.19 in North 3.5 mph 6.0 mph 54 % 0.00 in
14:48 74.1 °F 56.4 °F 30.19 in NW 3.7 mph 4.6 mph 54 % 0.00 in
14:53 74.0 °F 56.3 °F 30.19 in WNW 5.6 mph 11.5 mph 54 % 0.00 in
14:59 73.9 °F 55.2 °F 30.18 in WNW 1.6 mph 4.6 mph 52 % 0.00 in
15:04 73.6 °F 54.4 °F 30.18 in NNW 2.0 mph 5.8 mph 51 % 0.00 in
15:09 73.5 °F 54.8 °F 30.19 in NW 2.2 mph 4.6 mph 52 % 0.00 in
15:14 73.3 °F 55.6 °F 30.19 in North 3.8 mph 6.9 mph 54 % 0.00 in
15:19 73.2 °F 54.5 °F 30.19 in NNW 1.4 mph 3.5 mph 52 % 0.00 in
15:24 72.8 °F 54.7 °F 30.19 in North 2.2 mph 6.9 mph 53 % 0.00 in
15:29 72.0 °F 53.9 °F 30.19 in North 2.2 mph 6.9 mph 53 % 0.00 in
15:34 71.3 °F 53.3 °F 30.19 in NE 3.9 mph 6.9 mph 53 % 0.00 in
15:39 70.4 °F 53.5 °F 30.18 in NNE 4.1 mph 6.9 mph 55 % 0.00 in
15:44 69.9 °F 54.0 °F 30.19 in NE 3.5 mph 6.0 mph 57 % 0.00 in
15:49 69.7 °F 53.3 °F 30.18 in NE 4.1 mph 8.0 mph 56 % 0.00 in
15:54 69.8 °F 53.9 °F 30.18 in NE 4.9 mph 9.2 mph 57 % 0.00 in
15:59 69.7 °F 52.8 °F 30.18 in NNW 5.2 mph 8.1 mph 55 % 0.00 in
16:04 69.6 °F 53.7 °F 30.18 in NNE 4.2 mph 5.0 mph 57 % 0.00 in
16:10 69.5 °F 54.1 °F 30.19 in NNW 1.2 mph 3.5 mph 58 % 0.00 in
16:15 69.5 °F 52.6 °F 30.18 in WSW 4.1 mph 11.5 mph 55 % 0.00 in
16:20 69.5 °F 53.1 °F 30.18 in NNE 3.4 mph 7.0 mph 56 % 0.00 in
16:25 69.4 °F 53.5 °F 30.18 in North 3.1 mph 5.8 mph 57 % 0.00 in
16:30 69.5 °F 54.1 °F 30.18 in North 1.7 mph 8.1 mph 58 % 0.00 in
16:35 69.5 °F 53.1 °F 30.18 in NW 2.6 mph 5.8 mph 56 % 0.00 in
16:40 69.6 °F 52.7 °F 30.18 in NNW 0.9 mph 5.8 mph 55 % 0.00 in
16:45 69.4 °F 53.5 °F 30.18 in WNW 5.7 mph 8.1 mph 57 % 0.00 in
16:50 69.4 °F 54.0 °F 30.18 in NNW 3.5 mph 9.2 mph 58 % 0.00 in
16:55 69.4 °F 52.5 °F 30.18 in NNE 2.7 mph 4.6 mph 55 % 0.00 in
17:05 69.3 °F 51.9 °F 30.19 in NNE 5.0 mph 8.1 mph 54 % 0.00 in
17:10 68.9 °F 53.5 °F 30.19 in North 3.3 mph 9.0 mph 58 % 0.00 in
17:16 68.9 °F 53.0 °F 30.19 in North 3.0 mph 8.0 mph 57 % 0.00 in
17:21 68.5 °F 52.2 °F 30.19 in NNW 1.0 mph 9.0 mph 56 % 0.00 in
17:26 68.3 °F 52.5 °F 30.19 in NNW 3.0 mph 10.0 mph 57 % 0.00 in
17:31 67.9 °F 52.6 °F 30.19 in NNE 3.1 mph 8.0 mph 58 % 0.00 in
17:35 67.5 °F 52.7 °F 30.19 in North 2.0 mph 10.0 mph 59 % 0.00 in
17:41 67.3 °F 52.5 °F 30.19 in NNW 2.0 mph 10.0 mph 59 % 0.00 in
17:45 67.0 °F 52.2 °F 30.19 in NNW 3.0 mph 8.0 mph 59 % 0.00 in
17:51 66.7 °F 52.4 °F 30.19 in NW 4.0 mph 8.0 mph 60 % 0.00 in
17:56 66.5 °F 51.7 °F 30.19 in NW 2.0 mph 12.0 mph 59 % 0.00 in
18:01 66.3 °F 52.0 °F 30.19 in North 2.5 mph 8.1 mph 60 % 0.00 in
18:06 66.1 °F 51.8 °F 30.19 in NW 4.1 mph 8.1 mph 60 % 0.00 in
18:11 65.9 °F 51.6 °F 30.19 in WNW 0.5 mph 3.5 mph 60 % 0.00 in
18:16 65.8 °F 52.0 °F 30.19 in WNW 3.7 mph 9.2 mph 61 % 0.00 in
18:21 65.6 °F 51.8 °F 30.19 in NNW 2.1 mph 3.5 mph 61 % 0.00 in
18:26 65.5 °F 52.1 °F 30.19 in North 2.4 mph 4.6 mph 62 % 0.00 in
18:31 65.3 °F 51.9 °F 30.19 in North 0.9 mph 3.5 mph 62 % 0.00 in
18:36 65.1 °F 51.8 °F 30.19 in WNW 2.2 mph 8.1 mph 62 % 0.00 in
18:41 65.0 °F 52.1 °F 30.19 in SSE 0.8 mph 4.6 mph 63 % 0.00 in
18:46 64.8 °F 52.3 °F 30.19 in North 1.7 mph 5.8 mph 64 % 0.00 in
18:51 64.6 °F 52.1 °F 30.19 in WNW 1.2 mph 4.6 mph 64 % 0.00 in
18:56 64.5 °F 52.5 °F 30.20 in NW 1.3 mph 3.5 mph 65 % 0.00 in
19:01 64.3 °F 51.9 °F 30.19 in NNW 3.6 mph 6.9 mph 64 % 0.00 in
19:07 64.1 °F 52.1 °F 30.20 in NW 3.3 mph 5.8 mph 65 % 0.00 in
19:12 64.0 °F 52.0 °F 30.20 in NNE 2.0 mph 5.8 mph 65 % 0.00 in
19:17 63.9 °F 52.3 °F 30.20 in NW 1.5 mph 6.0 mph 66 % 0.00 in
19:22 63.7 °F 52.1 °F 30.20 in NNW 2.3 mph 8.1 mph 66 % 0.00 in
19:27 63.6 °F 52.0 °F 30.20 in North 1.6 mph 3.5 mph 66 % 0.00 in
19:32 63.5 °F 52.3 °F 30.20 in North 1.7 mph 4.6 mph 67 % 0.00 in
19:37 63.4 °F 52.2 °F 30.20 in North 3.2 mph 7.0 mph 67 % 0.00 in
19:42 63.4 °F 52.2 °F 30.20 in NNW 1.1 mph 5.0 mph 67 % 0.00 in
19:47 63.3 °F 52.6 °F 30.21 in West 2.8 mph 8.1 mph 68 % 0.00 in
19:52 63.2 °F 52.5 °F 30.21 in West 1.8 mph 5.8 mph 68 % 0.00 in
19:57 63.2 °F 52.5 °F 30.21 in NNE 1.7 mph 4.6 mph 68 % 0.00 in
20:02 63.2 °F 52.5 °F 30.21 in WNW 1.8 mph 5.8 mph 68 % 0.00 in
20:07 63.1 °F 52.8 °F 30.21 in NW 2.6 mph 6.9 mph 69 % 0.00 in
20:12 63.1 °F 52.4 °F 30.21 in NW 0.6 mph 5.8 mph 68 % 0.00 in
20:17 63.1 °F 52.8 °F 30.22 in North 0.6 mph 4.6 mph 69 % 0.00 in
20:22 63.1 °F 52.8 °F 30.22 in NNW 2.5 mph 7.0 mph 69 % 0.00 in
20:27 63.2 °F 53.3 °F 30.22 in NNW 5.0 mph 6.9 mph 70 % 0.00 in
20:32 63.2 °F 53.3 °F 30.22 in North 1.0 mph 4.0 mph 70 % 0.00 in
20:37 63.2 °F 53.3 °F 30.22 in North 1.5 mph 4.6 mph 70 % 0.00 in
20:42 63.1 °F 53.2 °F 30.22 in North 2.2 mph 4.0 mph 70 % 0.00 in
20:47 63.1 °F 53.5 °F 30.22 in North 0.9 mph 3.5 mph 71 % 0.00 in
20:52 63.0 °F 53.8 °F 30.22 in WNW 2.2 mph 3.5 mph 72 % 0.00 in
20:57 63.0 °F 53.8 °F 30.22 in North 4.1 mph 6.9 mph 72 % 0.00 in
21:03 62.9 °F 53.7 °F 30.22 in NW 3.3 mph 6.9 mph 72 % 0.00 in
21:08 62.9 °F 53.7 °F 30.22 in North 2.4 mph 8.1 mph 72 % 0.00 in
21:13 62.9 °F 54.1 °F 30.22 in NNW 2.7 mph 9.2 mph 73 % 0.00 in
21:18 62.8 °F 54.0 °F 30.22 in West 3.4 mph 5.0 mph 73 % 0.00 in
21:23 62.8 °F 54.0 °F 30.22 in NW 4.3 mph 9.2 mph 73 % 0.00 in
21:28 62.8 °F 53.6 °F 30.22 in NNE 5.2 mph 9.0 mph 72 % 0.00 in
21:33 62.8 °F 54.0 °F 30.22 in NNE 5.6 mph 9.2 mph 73 % 0.00 in
21:38 62.8 °F 54.0 °F 30.22 in NE 4.4 mph 6.9 mph 73 % 0.00 in
21:41 62.9 °F 54.1 °F 30.22 in North 3.5 mph 10.4 mph 73 % 0.00 in
21:46 62.9 °F 54.1 °F 30.22 in North 7.6 mph 12.0 mph 73 % 0.00 in
21:51 62.9 °F 54.1 °F 30.22 in WNW 4.7 mph 9.0 mph 73 % 0.00 in
21:56 63.0 °F 54.2 °F 30.22 in NNW 8.1 mph 12.7 mph 73 % 0.00 in
22:01 63.0 °F 54.6 °F 30.22 in NNE 6.6 mph 8.1 mph 74 % 0.00 in
22:07 63.1 °F 54.7 °F 30.22 in North 8.8 mph 13.8 mph 74 % 0.00 in
22:12 63.1 °F 54.7 °F 30.22 in NNE 7.3 mph 12.7 mph 74 % 0.00 in
22:17 63.1 °F 54.7 °F 30.23 in NNW 8.5 mph 14.0 mph 74 % 0.00 in
22:22 63.1 °F 54.7 °F 30.23 in NNW 4.3 mph 11.5 mph 74 % 0.00 in
22:27 63.0 °F 54.6 °F 30.23 in North 9.0 mph 12.7 mph 74 % 0.00 in
22:32 62.9 °F 54.5 °F 30.23 in NNW 10.3 mph 15.0 mph 74 % 0.00 in
22:37 62.9 °F 54.9 °F 30.23 in North 8.5 mph 13.0 mph 75 % 0.00 in
22:42 62.9 °F 54.9 °F 30.23 in NW 7.6 mph 12.7 mph 75 % 0.00 in
22:47 62.8 °F 54.8 °F 30.23 in North 7.2 mph 11.5 mph 75 % 0.00 in
22:52 62.8 °F 54.8 °F 30.23 in NNE 5.9 mph 11.5 mph 75 % 0.00 in
22:57 62.7 °F 55.0 °F 30.23 in NNE 5.3 mph 9.2 mph 76 % 0.00 in
23:02 62.6 °F 54.9 °F 30.23 in North 10.2 mph 15.0 mph 76 % 0.00 in
23:07 62.5 °F 55.2 °F 30.23 in NNE 7.1 mph 11.5 mph 77 % 0.00 in
23:12 62.4 °F 55.1 °F 30.23 in NNE 8.5 mph 12.0 mph 77 % 0.00 in
23:17 62.3 °F 55.0 °F 30.23 in NE 8.7 mph 16.1 mph 77 % 0.00 in
23:22 62.2 °F 54.9 °F 30.23 in NNW 6.9 mph 11.5 mph 77 % 0.00 in
23:27 62.2 °F 55.3 °F 30.23 in North 5.4 mph 11.5 mph 78 % 0.00 in
23:32 62.1 °F 55.2 °F 30.23 in NNE 6.5 mph 9.0 mph 78 % 0.00 in
23:38 62.0 °F 55.1 °F 30.23 in NNE 4.5 mph 11.5 mph 78 % 0.00 in
23:43 62.0 °F 55.1 °F 30.23 in NNE 7.5 mph 11.5 mph 78 % 0.00 in
23:48 62.0 °F 55.1 °F 30.23 in North 7.5 mph 12.7 mph 78 % 0.00 in
23:53 62.0 °F 55.4 °F 30.23 in NNE 5.7 mph 8.1 mph 79 % 0.00 in
23:58 62.0 °F 55.1 °F 30.23 in North 7.0 mph 10.4 mph 78 % 0.00 in
Crab Meadow Weather
Compliments of Weather Underground - 3.25 mb

Script developed by  Jim McMurry - jmcmurry@mwt.net Adapted for the template by  Wim van der Kuil - Leuven-Template.eu

Clouds: Mostly sunny and mostly clear indicate the same amount of cloud coverage - about 25 percent. Mostly sunny is used during the daytime, and mostly clear is used at night when there is no sun.